map of QRW home
QRW - Airport
Location
City:  Warri, Delta, Nigeria
Near (Alt.):Osubi
Name:Warri Airport
Old (Alt.):Osubi Airstrip
ICAO:DNSU
IATA:QRW

Details
Type:Airport (Aerodrome, Airfield)
Use:Public/Civil
Latitude:535'53"N (5.598056)
Longitude:549'07"E (5.818611)
Elevation:27 ft (8 m)
Variation:1.52W (WMM2015v2 magnetic declination)
0.13 annual change
Runways:1
Longest:6890 × 98 ft (2100 × 30 m), paved

Time
Time Zone:UTC+1
Local Time:

Weather
TAF:DNSU 041000Z 0412/0518 21010KT 9999 BKN013
TEMPO 0412/0418 TS BKN013 FEW020CB PROB30 0412/0417 5000 -TSRA BKN009 FEW019CB
BECMG 0418/0420 VRB02KT FEW010

Related Locations
Nearby:
Farthest:CIS: 12180 mi / 19601 km
Kanton Island (Canton Island, Abariringa Island) [Canton Island Airport], P, KI

Find:

   beyond  
but within

Other Information
Maps:
NOTAMs:
Links:
Sources:

  
  • flag of Nigeria
  

Sectional Chart

Flight Planning
at skyvector.com

Satellite Image

Google Maps Satellite view

 

Copyright © 2004-2019 Karl L. Swartz. All rights reserved.
The Great Circle Mapper name and logo are trademarks of the Great Circle Mapper.
All other trademarks mentioned herein belong to their respective owners.
Please see credits for attibutions and further copyright information.

  Follow gcmap on Facebook Follow gcmap on Twitter GCmap on LinkedIn

hCard Microformat

Geo Microformat